Flag Weather past 2 weeks in Post Falls, Idaho, U.S.A.

Now
32 °F

Sunny.


Feels Like: 29 °F
Forecast: 31 / 40 °F
Wind: 3 mph from South

Location: Coeur d'Alene Weather Reporting System

Current Time: Nov 24, 2014 at 8:49:32 AM

Latest Report: Nov 24, 2014 at 8:35 AM


Visibility: 10 mi

Pressure: 30.34 "Hg

Humidity: 87%

Dew point: 28 °F

Location of Post FallsLocation

Historic Weather in Post Falls — Graph

°F

Post Falls temperature yesterday

Maximum temperature yesterday: 39 °F (at 12:55 PM)
Minimum temperature yesterday: 28 °F (at 3:55 AM)
Average temperature yesterday: 35 °F

Past Weeks' High & Low Weather Summary

 TemperatureHumidityPressure
High45 °F (Nov 9, 7:55 AM)93% (Nov 20, 7:55 AM)30.61 "Hg (Nov 20, 7:55 AM)
Low10 °F (Nov 15, 5:15 AM)29% (Nov 11, 1:15 PM)29.36 "Hg (Nov 21, 11:35 PM)
Average28 °F68%30.15 "Hg
* Reported Nov 9 7:15 AM — Nov 24 7:35 AM, Post Falls, Weather by CustomWeather, © 2014

Note: Actual official high and low records may vary slightly from our data, if they occured in-between our weather recording intervals... More about our weather records

Advertising

Post Falls weather history for previous 24 hours

 ConditionsComfort  
Time TempWeatherWind HumidityBarometerVisibility
7:35 AM
Nov 24
30 °FSunny.8 mph86%30.32 "Hg10 mi
6:55 AM28 °FClear.6 mph86%30.31 "Hg10 mi
6:35 AM27 °FClear.5 mph93%30.31 "Hg10 mi
6:15 AM27 °FClear.3 mph93%30.31 "Hg10 mi
5:55 AM28 °FClear.5 mph86%30.30 "Hg10 mi
5:35 AM27 °FClear.6 mph93%30.29 "Hg10 mi
5:15 AM28 °FClear.6 mph86%30.30 "Hg10 mi
4:55 AM28 °FClear.8 mph86%30.29 "Hg10 mi
4:35 AM28 °FClear.8 mph86%30.27 "Hg10 mi
4:15 AM30 °FClear.7 mph86%30.26 "Hg10 mi
3:55 AM30 °FClear.8 mph86%30.24 "Hg10 mi
3:35 AM28 °FClear.10 mph86%30.24 "Hg10 mi
2:55 AM28 °FClear.3 mph86%30.24 "Hg10 mi
2:35 AM30 °FClear.3 mph86%30.24 "Hg10 mi
2:15 AM28 °FClear.5 mph93%30.23 "Hg10 mi
1:55 AM28 °FClear.6 mph93%30.23 "Hg10 mi
1:35 AM28 °FClear.6 mph93%30.21 "Hg10 mi
1:15 AM30 °FPassing clouds.7 mph86%30.20 "Hg10 mi
12:55 AM30 °FPassing clouds.6 mph86%30.20 "Hg10 mi
12:35 AM30 °FClear.6 mph93%30.18 "Hg10 mi
12:15 AM30 °FClear.6 mph80%30.17 "Hg10 mi
11:55 PM
Nov 23
32 °FClear.6 mph87%30.16 "Hg10 mi
11:35 PM32 °FClear.7 mph87%30.15 "Hg10 mi
11:15 PM32 °FPassing clouds.6 mph87%30.14 "Hg10 mi
10:55 PM32 °FClear.6 mph87%30.13 "Hg10 mi
10:35 PM34 °FClear.5 mph81%30.12 "Hg10 mi
10:15 PM34 °FClear.7 mph81%30.10 "Hg10 mi
9:55 PM34 °FClear.8 mph81%30.10 "Hg10 mi
9:35 PM34 °FClear.10 mph81%30.09 "Hg10 mi
9:15 PM34 °FClear.7 mph81%30.09 "Hg10 mi
8:55 PM36 °FClear.10 mph75%30.08 "Hg10 mi
8:35 PM36 °FPassing clouds.8 mph75%30.07 "Hg10 mi
8:15 PM37 °FPartly cloudy.8 mph70%30.06 "Hg10 mi
7:55 PM36 °FPartly cloudy.7 mph75%30.06 "Hg10 mi
7:35 PM36 °FClear.10 mph81%30.05 "Hg10 mi
7:15 PM36 °FClear.14 mph81%30.03 "Hg10 mi
6:55 PM37 °FPassing clouds.17 mph75%30.02 "Hg10 mi
6:35 PM37 °FPassing clouds.16 mph81%30.02 "Hg10 mi
6:15 PM37 °FClear.15 mph81%30.01 "Hg10 mi
5:55 PM37 °FPassing clouds.17 mph87%30.00 "Hg10 mi
5:35 PM39 °FPassing clouds.18 mph81%29.99 "Hg10 mi
5:15 PM39 °FMostly cloudy.10 mph81%29.99 "Hg10 mi
4:55 PM39 °FMostly cloudy.9 mph87%29.98 "Hg10 mi
4:35 PM39 °FMostly cloudy.9 mph87%29.98 "Hg10 mi
3:35 PM39 °FMostly cloudy.14 mph87%29.97 "Hg10 mi
3:15 PM39 °FMostly cloudy.13 mph87%29.96 "Hg10 mi
2:55 PM39 °FOvercast.15 mph87%29.96 "Hg10 mi
2:35 PM39 °FOvercast.17 mph87%29.96 "Hg10 mi
2:15 PM37 °FMostly cloudy.15 mph93%29.97 "Hg7 mi
1:55 PM37 °FOvercast.10 mph87%29.99 "Hg7 mi
1:35 PM39 °FMostly cloudy.10 mph81%29.99 "Hg8 mi
1:15 PM39 °FOvercast.13 mph81%29.99 "Hg10 mi
12:55 PM39 °FOvercast.14 mph81%30.00 "Hg10 mi
12:35 PM37 °FOvercast.5 mph87%30.01 "Hg10 mi
12:15 PM37 °FOvercast.7 mph87%30.02 "Hg10 mi
11:55 AM37 °FMostly cloudy.7 mph87%30.03 "Hg10 mi
11:35 AM37 °FMore clouds than sun.5 mph87%30.04 "Hg10 mi
11:15 AM36 °FMostly cloudy.5 mph93%30.05 "Hg10 mi
10:55 AM37 °FMostly cloudy.No wind87%30.06 "Hg10 mi
10:35 AM37 °FMostly cloudy.7 mph87%30.08 "Hg10 mi
10:15 AM37 °FBroken clouds.6 mph87%30.08 "Hg10 mi
9:55 AM36 °FCloudy.6 mph93%30.09 "Hg9 mi
9:35 AM36 °FMore clouds than sun.9 mph87%30.10 "Hg10 mi
9:15 AM36 °FBroken clouds.8 mph87%30.10 "Hg10 mi
8:55 AM34 °FCloudy.No wind87%30.10 "Hg10 mi
8:35 AM34 °FCloudy.No wind87%30.10 "Hg10 mi
8:15 AM34 °FCloudy.No wind87%30.11 "Hg10 mi
Weather by CustomWeather, © 2014

See weather overviewHow to use our weather pages